Shaw AFB, SC

6:00 PM EDT on May 26, 2017 (GMT -0400)
Shaw Air Force Base

Weather History for KSSC - May, 2013

Change the Weather History Date:

Thursday, May 9, 2013

  Actual Average Record
Temperature  
Mean Temperature 70 °F -  
Max Temperature 84 °F 78 °F 92 °F (2014)
Min Temperature 57 °F 56 °F 51 °F (2001)
Cooling Degree Days 6    
Growing Degree Days 20 (Base 50)    
Moisture  
Dew Point 52 °F    
Average Humidity 53    
Maximum Humidity 82    
Minimum Humidity 27    
Precipitation  
Precipitation 0.00 in - - ()
Sea Level Pressure  
Sea Level Pressure 30.04 in    
Wind  
Wind Speed 5 mph (WSW)    
Max Wind Speed 10 mph    
Max Gust Speed -    
Visibility 10 miles    
Events Rain    
Averages and records for this station are not official NWS values.
T = Trace of Precipitation, MM = Missing Value Source: NWS Daily Summary

Daily Weather History Graph

Daily Weather History Graph

Search for Another Location

Airport or City:

Trip Planner

Search our weather history database for the weather conditions in past years. The results will help you decide how hot, cold, wet, or windy it might be!

Date:

Astronomy

May. 09, 2013 Rise Set
Actual Time 6:25 AM EDT 8:12 PM EDT
Civil Twilight 5:57 AM EDT 8:39 PM EDT
Nautical Twilight 5:25 AM EDT 9:12 PM EDT
Astronomical Twilight 4:50 AM EDT 9:47 PM EDT
Moon 6:07 AM EDT (5/9) 8:05 PM EDT (5/9)
Length of Visible Light 14h 41m
Length of Day
13h 46m
Waning Crescent, 0% of the Moon is Illuminated
May 9
Waning Crescent
May 9
New
May 18
First Quarter
May 25
Full
May 31
Last Quarter

Hourly Weather History & Observations

Time (EDT) Temp. Heat Index Dew Point Humidity Pressure Visibility Wind Dir Wind Speed Gust Speed Precip Events Conditions
12:58 AM 65.8 °F - 50.9 °F 58% 30.01 in 10.0 mi WSW 6.9 mph - N/A   Scattered Clouds
1:58 AM 66.2 °F - 50.4 °F 57% 30.00 in 10.0 mi WSW 9.2 mph - N/A   Mostly Cloudy
2:58 AM 63.3 °F - 51.1 °F 64% 29.99 in 10.0 mi West 8.1 mph - N/A   Clear
3:58 AM 59.5 °F - 51.8 °F 76% 29.99 in 10.0 mi SSW 1.2 mph - N/A   Clear
4:58 AM 58.3 °F - 52.5 °F 81% 30.00 in 10.0 mi SSW 2.3 mph - N/A   Clear
5:58 AM 57.6 °F - 52.2 °F 82% 30.01 in 10.0 mi SSW 2.3 mph - N/A   Clear
6:58 AM 58.6 °F - 51.4 °F 77% 30.04 in 10.0 mi West 1.2 mph - N/A   Clear
7:58 AM 63.0 °F - 53.1 °F 70% 30.06 in 10.0 mi WNW 6.9 mph - N/A   Clear
8:58 AM 67.1 °F - 54.0 °F 63% 30.08 in 10.0 mi WNW 5.8 mph - N/A   Clear
9:58 AM 71.6 °F - 53.8 °F 53% 30.07 in 10.0 mi ENE 3.5 mph - N/A   Clear
9:59 AM 71.6 °F - 53.6 °F 53% 30.07 in 10.0 mi Variable 1.2 mph - N/A Rain Light Rain
10:58 AM 74.1 °F - 51.8 °F 46% 30.08 in 10.0 mi Calm Calm - N/A   Partly Cloudy
11:58 AM 77.7 °F - 50.0 °F 38% 30.09 in 10.0 mi NNW 8.1 mph - N/A   Scattered Clouds
12:58 PM 79.0 °F - 52.0 °F 39% 30.08 in 10.0 mi WNW 9.2 mph - N/A   Partly Cloudy
1:58 PM 81.0 °F 80.4 °F 53.1 °F 38% 30.06 in 10.0 mi Variable 3.5 mph - N/A   Scattered Clouds
2:58 PM 82.6 °F - 50.2 °F 32% 30.05 in 10.0 mi West 4.6 mph - N/A   Partly Cloudy
3:58 PM 82.6 °F - 47.8 °F 30% 30.04 in 10.0 mi West 4.6 mph - N/A   Scattered Clouds
4:58 PM 84.0 °F - 47.7 °F 28% 30.03 in 10.0 mi WNW 10.4 mph - N/A   Partly Cloudy
5:58 PM 83.3 °F - 45.9 °F 27% 30.02 in 10.0 mi WSW 4.6 mph - N/A   Scattered Clouds
6:58 PM 81.5 °F - 46.0 °F 29% 30.02 in 10.0 mi SW 3.5 mph - N/A   Clear
7:52 PM 80.6 °F - 48.2 °F 32% 30.04 in 10.0 mi West 2.3 mph - N/A Rain Light Rain
7:58 PM 79.3 °F - 52.9 °F 40% 30.04 in 10.0 mi SSW 3.5 mph - 0.00 in Rain Light Rain
8:02 PM 77.0 °F - 55.4 °F 47% 30.04 in 10.0 mi SSW 2.3 mph - N/A   Clear
8:58 PM 71.1 °F - 57.4 °F 62% 30.05 in 10.0 mi South 2.3 mph - 0.00 in   Clear
9:58 PM 67.3 °F - 57.4 °F 70% 30.07 in 10.0 mi Calm Calm - N/A   Clear
10:58 PM 66.7 °F - 56.3 °F 69% 30.08 in 10.0 mi South 2.3 mph - N/A   Clear
11:58 PM 65.8 °F - 54.5 °F 67% 30.07 in 10.0 mi Calm Calm - N/A   Clear